Date String (YYYY-MM-DD hh:mm:ss) UTC,Instrument flags,Ambient pressure (hPa),Sample flow (lpm),Bypass flow (lpm),Sample temperature (°C),Ambient temperature (°C),ASC tube jacket temperature (°C),LED temperature (°C),Box temperature (°C),Sample RH (%),Span deviation,Mass concentration (μg/m³),Mass concentration (μg/m³),Mass concentration (μg/m³)
DateTimeUTC,F1_M11,P_M11,Q1_M11,Q2_M11,T1_M11,T2_M11,T3_M11,T4_M11,T5_M11,U1_M11,ZSPAN_M11,X0_M11,X2_M11,X1_M11
2022-05-20 14:00:00,,0818.3,4.99,0.00,24.0,23.1,00.0,32.8,26.0,21.2,0000.0,0001.41,0001.37,0001.30
2022-05-20 14:01:00,,0818.3,5.00,0.00,24.0,23.1,00.0,32.9,26.0,21.1,0000.0,0001.42,0001.39,0001.31
2022-05-20 14:02:00,,0818.4,5.00,0.00,24.0,23.1,00.0,32.9,26.0,21.0,0000.0,0001.45,0001.40,0001.32
2022-05-20 14:03:00,,0818.4,4.99,0.00,24.0,23.1,00.0,32.9,26.0,20.9,0000.0,0001.53,0001.44,0001.34
2022-05-20 14:04:00,,0818.4,5.00,0.00,24.0,23.1,00.0,32.9,26.0,20.8,0000.0,0001.57,0001.46,0001.35
2022-05-20 14:05:00,,0818.3,4.99,0.00,24.1,23.2,00.0,32.9,26.0,20.7,0000.0,0001.64,0001.49,0001.36
2022-05-20 14:06:00,,0818.2,5.02,0.00,24.1,23.2,00.0,32.9,26.0,20.6,0000.0,0001.67,0001.52,0001.37
2022-05-20 14:07:00,,0818.1,5.00,0.00,24.1,23.2,00.0,32.9,26.1,20.6,0000.0,0001.71,0001.53,0001.37
2022-05-20 14:08:00,,0818.1,4.99,0.00,24.1,23.2,00.0,32.9,26.1,20.5,0000.0,0001.67,0001.51,0001.35
2022-05-20 14:09:00,,0818.1,5.00,0.00,24.1,23.2,00.0,33.0,26.1,20.5,0000.0,0001.65,0001.49,0001.34
2022-05-20 14:10:00,,0818.0,4.99,0.00,24.1,23.2,00.0,33.0,26.1,20.5,0000.0,0001.67,0001.50,0001.34
2022-05-20 14:11:00,,0818.0,4.99,0.00,24.1,23.2,00.0,33.0,26.1,20.5,0000.0,0001.80,0001.57,0001.36
2022-05-20 14:12:00,,0818.0,5.01,0.00,24.1,23.2,00.0,33.0,26.1,20.5,0000.0,0001.76,0001.57,0001.37
2022-05-20 14:13:00,,0818.0,5.00,0.00,24.2,23.2,00.0,33.0,26.1,20.5,0000.0,0001.81,0001.59,0001.39
2022-05-20 14:14:00,,0818.0,5.00,0.00,24.2,23.2,00.0,33.0,26.1,20.6,0000.0,0001.94,0001.62,0001.40
2022-05-20 14:15:00,,0818.0,4.99,0.00,24.2,23.2,00.0,33.0,26.1,20.6,0000.0,0001.96,0001.63,0001.42
2022-05-20 14:16:00,,0818.1,5.01,0.00,24.2,23.2,00.0,33.0,26.1,20.6,0000.0,0002.02,0001.65,0001.44
2022-05-20 14:17:00,,0818.2,4.99,0.00,24.2,23.3,00.0,33.0,26.1,20.6,0000.0,0002.00,0001.65,0001.45
2022-05-20 14:18:00,,0818.2,5.01,0.00,24.2,23.3,00.0,33.1,26.2,20.6,0000.0,0001.98,0001.66,0001.46
2022-05-20 14:19:00,,0818.2,4.99,0.00,24.2,23.3,00.0,33.1,26.2,20.6,0000.0,0001.99,0001.67,0001.47
2022-05-20 14:20:00,,0818.2,5.02,0.00,24.2,23.3,00.0,33.1,26.2,20.6,0000.0,0002.03,0001.68,0001.46
2022-05-20 14:21:00,,0818.2,4.99,0.00,24.2,23.3,00.0,33.1,26.2,20.6,0000.0,0002.03,0001.67,0001.46
2022-05-20 14:22:00,,0818.2,5.00,0.00,24.2,23.3,00.0,33.1,26.2,20.6,0000.0,0001.88,0001.61,0001.43
2022-05-20 14:23:00,,0818.2,5.01,0.00,24.2,23.3,00.0,33.1,26.2,20.6,0000.0,0001.84,0001.59,0001.42
2022-05-20 14:24:00,,0818.2,4.99,0.00,24.2,23.3,00.0,33.1,26.2,20.7,0000.0,0001.74,0001.54,0001.40
2022-05-20 14:25:00,,0818.4,4.99,0.00,24.2,23.3,00.0,33.1,26.2,20.7,0000.0,0001.59,0001.51,0001.39
2022-05-20 14:26:00,,0818.4,5.01,0.00,24.2,23.3,00.0,33.1,26.2,20.8,0000.0,0001.58,0001.51,0001.39
2022-05-20 14:27:00,,0818.4,5.00,0.00,24.3,23.3,00.0,33.1,26.2,20.7,0000.0,0001.58,0001.54,0001.42
2022-05-20 14:28:00,,0818.4,5.01,0.00,24.3,23.3,00.0,33.1,26.2,20.7,0000.0,0001.70,0001.61,0001.47
2022-05-20 14:29:00,,0818.3,4.99,0.00,24.3,23.3,00.0,33.1,26.2,20.7,0000.0,0001.82,0001.68,0001.52
2022-05-20 14:30:00,,0818.4,5.01,0.00,24.3,23.3,00.0,33.2,26.2,20.7,0000.0,0001.87,0001.70,0001.53
2022-05-20 14:31:00,,0818.4,4.99,0.00,24.3,23.3,00.0,33.2,26.2,20.7,0000.0,0001.91,0001.72,0001.54
2022-05-20 14:32:00,,0818.4,5.01,0.00,24.3,23.3,00.0,33.2,26.3,20.6,0000.0,0001.89,0001.72,0001.55
2022-05-20 14:33:00,,0818.4,4.99,0.00,24.3,23.3,00.0,33.2,26.3,20.6,0000.0,0001.89,0001.73,0001.55
2022-05-20 14:34:00,,0818.3,5.00,0.00,24.3,23.3,00.0,33.2,26.3,20.6,0000.0,0001.91,0001.74,0001.56
2022-05-20 14:35:00,,0818.3,5.01,0.00,24.3,23.3,00.0,33.2,26.3,20.6,0000.0,0001.94,0001.75,0001.57
2022-05-20 14:36:00,,0818.3,4.99,0.00,24.3,23.3,00.0,33.2,26.3,20.6,0000.0,0001.96,0001.77,0001.58
2022-05-20 14:37:00,,0818.2,5.01,0.00,24.3,23.3,00.0,33.2,26.3,20.6,0000.0,0001.97,0001.78,0001.59
2022-05-20 14:38:00,,0818.2,4.99,0.00,24.3,23.3,00.0,33.2,26.3,20.7,0000.0,0001.90,0001.73,0001.56
2022-05-20 14:39:00,,0818.2,5.01,0.00,24.3,23.3,00.0,33.2,26.3,20.7,0000.0,0001.79,0001.67,0001.52
2022-05-20 14:40:00,,0818.4,4.99,0.00,24.3,23.3,00.0,33.2,26.3,20.7,0000.0,0001.69,0001.60,0001.49
2022-05-20 14:41:00,,0818.3,5.02,0.00,24.3,23.3,00.0,33.2,26.3,20.8,0000.0,0001.65,0001.59,0001.50
2022-05-20 14:42:00,,0818.3,4.99,0.00,24.3,23.3,00.0,33.2,26.3,20.7,0000.0,0001.66,0001.61,0001.51
2022-05-20 14:43:00,,0818.3,5.01,0.00,24.3,23.3,00.0,33.2,26.3,20.8,0000.0,0001.72,0001.64,0001.53
2022-05-20 14:44:00,,0818.2,5.00,0.00,24.3,23.3,00.0,33.2,26.3,20.8,0000.0,0001.77,0001.67,0001.56
2022-05-20 14:45:00,,0818.1,4.99,0.00,24.3,23.3,00.0,33.2,26.3,20.8,0000.0,0001.82,0001.69,0001.58
2022-05-20 14:46:00,,0818.1,5.01,0.00,24.3,23.3,00.0,33.2,26.3,20.7,0000.0,0001.90,0001.73,0001.59
2022-05-20 14:47:00,,0818.2,5.00,0.00,24.3,23.3,00.0,33.2,26.3,20.7,0000.0,0001.88,0001.73,0001.60
2022-05-20 14:48:00,,0818.3,4.99,0.00,24.3,23.3,00.0,33.3,26.3,20.8,0000.0,0001.94,0001.77,0001.61
2022-05-20 14:49:00,,0818.3,5.01,0.00,24.3,23.3,00.0,33.3,26.3,20.9,0000.0,0001.95,0001.78,0001.63
2022-05-20 14:50:00,,0818.3,5.00,0.00,24.3,23.3,00.0,33.3,26.3,20.9,0000.0,0001.97,0001.80,0001.64
2022-05-20 14:51:00,,0818.2,4.98,0.00,24.3,23.3,00.0,33.3,26.3,20.9,0000.0,0002.01,0001.82,0001.65
2022-05-20 14:52:00,,0818.2,5.02,0.00,24.4,23.3,00.0,33.3,26.3,21.0,0000.0,0002.07,0001.85,0001.65
2022-05-20 14:53:00,,0818.3,5.01,0.00,24.4,23.3,00.0,33.3,26.3,21.6,0000.0,0002.04,0001.84,0001.65
2022-05-20 14:54:00,,0818.4,4.99,0.00,24.4,23.3,00.0,33.3,26.3,23.2,0000.0,0002.01,0001.83,0001.65
2022-05-20 14:55:00,,0818.4,5.01,0.00,24.4,23.4,00.0,33.3,26.3,22.3,0000.0,0002.04,0001.84,0001.64
2022-05-20 14:56:00,,0818.5,4.99,0.00,24.4,23.4,00.0,33.3,26.3,21.4,0000.0,0002.06,0001.85,0001.66
2022-05-20 14:57:00,,0818.6,4.99,0.00,24.4,23.4,00.0,33.3,26.3,21.0,0000.0,0002.03,0001.85,0001.68
2022-05-20 14:58:00,,0818.5,4.99,0.00,24.4,23.4,00.0,33.3,26.3,20.9,0000.0,0002.13,0001.89,0001.70
2022-05-20 14:59:00,,0818.5,5.01,0.00,24.4,23.4,00.0,33.3,26.3,20.8,0000.0,0002.14,0001.90,0001.71
